Regional Weather Roundup
Issued by NWS

Home | Current Version | Previous Version | Text Only | Print | Product List | Glossary On
Versions: 1 2 3 4 5 6 7 8 9 10 11 12 13 14 15 16 17 18 19 20 21 22 23 24 25 26 27 28 29 30 31 32 33 34 35 36 37 38 39 40 41 42 43 44 45 46 47 48 49 50
000
ASUS43 KTOP 241908
RWRKS

WEATHER ROUNDUP FOR KANSAS
NATIONAL WEATHER SERVICE GOODLAND KS
200 PM CDT SAT SEP 24 2016

NOTE:  "FAIR" INDICATES FEW OR NO CLOUDS BELOW 12,000 FEET WITH NO
SIGNIFICANT WEATHER AND/OR OBSTRUCTIONS TO VISIBILITY.

KSZ001>006-013>018-027>032-041>047-242000-
NORTHWEST KANSAS

CITY           SKY/WX    TMP DP  RH WIND       PRES   REMARKS
GOODLAND       SUNNY     70  37  29 VRB3      30.00F
HAYS           CLOUDY    68  48  49 CALM      29.94F
HILL CITY      MOSUNNY   72  53  51 N5        29.96F
RUSSELL        CLOUDY    67  59  75 NW5       29.91F
$$

KSZ061>065-074>080-084>089-242000-
SOUTHWEST KANSAS

CITY           SKY/WX    TMP DP  RH WIND       PRES   REMARKS
DODGE CITY     CLOUDY    70  57  63 CALM      29.95F
ELKHART          N/A     76  43  31 W2          N/A
GARDEN CITY    MOSUNNY   73  47  39 NW6       29.96F
GREAT BEND     CLOUDY    68  57  68 N5        29.93F
LIBERAL        SUNNY     77  52  41 SW5       29.96F
PRATT          TSTM      73  68  85 S8        29.93R
$$

KSZ066>073-081>083-090>101-242000-
SOUTHEAST KANSAS

CITY           SKY/WX    TMP DP  RH WIND       PRES   REMARKS
CHANUTE        MOSUNNY   88  69  53 S18       29.98F
COFFEYVILLE    PTSUNNY   87  69  54 S16G23    29.98F
HUTCHINSON     TSTM      71  67  87 S9        29.93R FOG
MEDICINE LODGE   N/A     76  69  79 SW31G63   29.92R
NEWTON         PTSUNNY  N/A N/A N/A S22G29    29.93F
PARSONS        MOSUNNY   89  69  51 S9G20     29.99F
WICHITA INTL   CLOUDY    84  73  69 S20       29.92F
WICHITA JABRA  MOSUNNY   84  72  67 S18G26    29.92F
WICHITA MCCONL MOSUNNY   82  73  73 S18       29.92F
WINFIELD       MOSUNNY   88  71  57 SE21      29.94F
$$

KSZ007>012-019>026-033>040-048>060-102>105-242000-
NORTHEAST KANSAS

CITY           SKY/WX    TMP DP  RH WIND       PRES   REMARKS
CONCORDIA      LGT RAIN  72  72 100 S8        29.95F
EMPORIA        MOSUNNY   86  71  60 S20G26    29.94F
LAWRENCE       MOSUNNY   88  70  55 SE15      29.96F
MANHATTAN      MOSUNNY   87  73  62 SW13      29.91F
MARYSVILLE     CLOUDY    72  70  94 CALM      29.93F
OLATHE IND     MOSUNNY   88  71  57 S17G24    29.99F
OLATHE EXE     MOSUNNY   86  71  60 S15G23    29.99F
SALINA         CLOUDY    74  70  87 SE10      29.92F
TOPEKA BILLARD MOSUNNY   88  71  57 S14       29.93F
TOPEKA FORBES  MOSUNNY   90  71  53 S16G23    29.94F HX  96
$$



USA.gov is the U.S. government's official web portal to all federal, state and local government web resources and services.